Regional Weather Roundup
Issued by NWS San Angelo, TX

Home | Current Version | Previous Version | Text Only | Print | Product List | Glossary On
Versions: 1 2 3 4 5 6 7 8 9 10 11 12 13 14 15 16 17 18 19 20 21 22 23 24 25 26 27 28 29 30 31 32 33 34 35 36 37 38 39 40 41 42 43 44 45 46 47 48 49 50
000
ASUS44 KSJT 301010
RWRSJT
WEST CENTRAL TEXAS REGIONAL WEATHER ROUNDUP
NATIONAL WEATHER SERVICE SAN ANGELO TX
400 AM CST FRI JAN 30 2015

NOTE: "FAIR" INDICATES FEW OR NO CLOUDS BELOW 12,000 FEET WITH NO
SIGNIFICANT WEATHER AND/OR OBSTRUCTIONS TO VISIBILITY.

TXZ049-054-064>066-071>073-076>078-098-099-113-114-127-128-139-140-
154-155-168>170-301100
...LOCATIONS ACROSS WEST CENTRAL TEXAS...

CITY           SKY/WX    TMP DP  RH WIND       PRES   REMARKS
SAN ANGELO     CLOUDY    47  31  53 NE9       30.43S
ABILENE        MOCLDY    43  30  60 NE7       30.45F WCI  39
DYESS AFB      CLOUDY    43  31  61 NE6       30.45F WCI  40
JUNCTION       CLOUDY    48  32  53 E7        30.41F
SWEETWATER     CLOUDY    42  30  61 NE10      30.47F WCI  36
BROWNWOOD      CLOUDY    46  32  57 NE8       30.44S
COLEMAN        CLOUDY    45  33  62 NE12      30.44S WCI  39
SONORA         CLOUDY    46  32  57 NE8       30.44F
OZONA          FAIR      45  32  61 NE13      30.43F WCI  38
BRADY          CLOUDY    48  36  61 NE7       30.41F
$$

TEXAS PANHANDLE/OKLAHOMA PANHANDLE

CITY           SKY/WX    TMP DP  RH WIND       PRES   REMARKS
AMARILLO       CLOUDY    36  27  69 SE8       30.46S WCI  30
BORGER         CLOUDY    40  25  55 SE7       30.46F WCI  35
CANADIAN       CLOUDY    32  31  94 CALM      30.48F
DALHART        CLOUDY    37  30  75 S6        30.43F WCI  32
DUMAS          CLOUDY    34  31  88 S5        30.44F WCI  30
GUYMON         NOT AVBL
HEREFORD       CLOUDY    39  32  77 SE5       30.45F WCI  35
PAMPA          CLOUDY    34  27  75 SE6       30.46F WCI  29
PERRYTON         N/A     32  26  78 S6        30.46S WCI  26
$$

SOUTHERN PANHANDLE/SOUTH PLAINS/ROLLING PLAINS

CITY           SKY/WX    TMP DP  RH WIND       PRES   REMARKS
LUBBOCK        CLOUDY    40  29  64 E5        30.44F WCI  37
SNYDER         CLOUDY   N/A N/A N/A E13       30.45F
CHILDRESS      CLOUDY    42  28  57 E3        30.50F
SEMINOLE       CLOUDY    42  27  54 E6        30.43F WCI  38
$$

PERMIAN BASIN

CITY           SKY/WX    TMP DP  RH WIND       PRES   REMARKS
MIDLAND        CLOUDY    44  28  53 E14       30.40F WCI  37
ODESSA         CLOUDY    44  29  55 E10       30.40F WCI  39
WINK           CLOUDY    45  31  58 NE6       30.40F
$$

FAR WEST/SOUTHWEST MOUNTAINS/TRANS PECOS

CITY           SKY/WX    TMP DP  RH WIND       PRES   REMARKS
ALPINE         CLOUDY    41  29  61 NE9       30.42F WCI  35
DRYDEN           N/A     52  31  44 NE13      30.36F
EL PASO        LGT RAIN  43  38  82 NE8       30.30F WCI  38
FORT STOCKTON  CLOUDY    45  29  53 E9        30.40F
GUADALUPE PASS CLOUDY    35  26  69 NE40      30.31F WCI  20
MARFA          CLOUDY    41  28  60 NE13      30.35F WCI  34
PECOS          LGT RAIN  46  33  61 NE6       30.41F
$$

DALLAS/FORT WORTH METROPLEX

CITY           SKY/WX    TMP DP  RH WIND       PRES   REMARKS
DFW AIRPORT    CLOUDY    43  31  62 N7        30.46F WCI  39
FTW MEACHAM    CLOUDY    46  31  55 N10       30.46F
DAL-EXECUTIVE  CLOUDY    47  29  49 NE10      30.45F
GRAND PRAIRIE  CLOUDY    46  32  57 N9        30.48S
ADDISON        CLOUDY    45  31  58 CALM      30.47F
MESQUITE       CLOUDY    44  31  60 N6        30.46F
LANCASTER      CLOUDY    46  29  53 N9        30.47S
$$

NORTH CENTRAL TEXAS

CITY           SKY/WX    TMP DP  RH WIND       PRES   REMARKS
SHRMAN/DENISON PTSUNNY   38  33  81 N7        30.50S WCI  33
GAINESVILLE    MOCLDY    40  31  69 N3        30.49F
BRIDGEPORT     CLOUDY    43  33  67 NE5       30.50S
DENTON         CLOUDY    43  32  65 NE8       30.47F WCI  38
WAXAHACHIE     PTSUNNY   46  32  59 NE10G21   30.45F
GRANBURY       CLOUDY    46  33  61 N6        30.47S
$$

WESTERN NORTH TEXAS

CITY           SKY/WX    TMP DP  RH WIND       PRES   REMARKS
WICHITA FALLS  CLOUDY    40  33  76 N6        30.48F WCI  36
VERNON         CLOUDY    42  28  56 N3        30.51S
BRECKENRIDGE   CLOUDY    45  31  59 NE6       30.46F
COMANCHE       CLOUDY    44  33  65 NE8       30.45R WCI  39
$$

CENTRAL AND SOUTH CENTRAL TEXAS

CITY           SKY/WX    TMP DP  RH WIND       PRES   REMARKS
AUSTIN/BERGSTM CLOUDY    51  34  52 N21G30    30.39S
WACO           MOCLDY    46  33  60 N10       30.43F
HILLSBORO      MOSUNNY   45  31  59 N8        30.43F
TEMPLE         MOCLDY    46  30  53 N9        30.41S
KILLEEN-GRAY   CLOUDY    47  33  57 NE17G23   30.41S
FORT HOOD      CLOUDY    48  33  55 N16       30.41S
GEORGETOWN     CLOUDY    48  32  53 N14G20    30.41S
LAGO VISTA     CLOUDY    50  33  52 NE12G17   30.40S
SAN MARCOS     MOCLDY    50  32  50 NE18G24   30.39R
NEW BRAUNFELS  MOCLDY    53  34  48 NE16      30.36F
RANDOLPH AFB   MOCLDY    53  34  47 NE8       30.36S
SAN ANTONIO    MOCLDY    54  35  48 N12       30.36F
STINSON        PTCLDY    55  35  47 NE8       30.35S
PLEASANTON     NOT AVBL
LA GRANGE      CLOUDY    54  38  55 N7        30.35F
GIDDINGS       CLOUDY    51  35  53 N10G16    30.41S
$$

EAST TEXAS

CITY           SKY/WX    TMP DP  RH WIND       PRES   REMARKS
PARIS          PTCLDY    37  28  70 N5        30.47F WCI  34
CLARKSVILLE    NOT AVBL
TYLER          MOCLDY    45  32  60 NE9       30.43S
LONGVIEW       MOCLDY    45  31  58 NE8       30.44R
PALESTINE      MOSUNNY   47  33  58 N9        30.42F
NACOGDOCHES    PTCLDY    45  32  61 NE7       30.41S
$$

TEXAS HILL COUNTRY AND EDWARDS PLATEAU

CITY           SKY/WX    TMP DP  RH WIND       PRES   REMARKS
LLANO          CLOUDY    50  32  50 NE8       30.45S
HORSESHOE BAY  CLOUDY    50  33  52 N5        30.42S
KERRVILLE      DRIZZLE   49  36  62 N5        30.39F
FREDERICKSBRG  CLOUDY    47  33  57 N12       30.39F
ROCKSPRINGS    NOT AVBL
HONDO          MOCLDY    52  36  54 NE6       30.38S
UVALDE         CLOUDY    55  40  58 NE6       30.36F
DEL RIO        CLOUDY    58  37  45 CALM      30.35F
$$

SOUTHEAST TEXAS

CITY           SKY/WX    TMP DP  RH WIND       PRES   REMARKS
COLLEGE STN    CLOUDY    50  34  54 N10       30.39S
CALDWELL       CLOUDY    48  34  57 N8        30.42F
CROCKETT       SUNNY     46  37  71 N7        30.42F
BRENHAM        CLOUDY    52  37  56 N8        30.39R
HUNTSVILLE     CLEAR     47  35  63 VRB3      30.37F
CONROE         CLEAR     51  36  56 VRB5      30.36F
HOUSTON BUSH   MOCLDY    53  41  63 N10       30.34F
HOUSTON HOBBY  PTCLDY    57  42  57 NE17G23   30.32F
PERLAND        PTCLDY    59  42  53 NE14      30.34S
WHARTON        MOSUNNY   54  44  67 N9        30.33F
$$

THE UPPER TEXAS COAST

CITY           SKY/WX    TMP DP  RH WIND       PRES   REMARKS
ORANGE         SUNNY     53  44  72 N7        30.34S
PORT ARTHUR    CLEAR     54  42  64 N9        30.32R
GALVESTON      PTCLDY    58  47  66 N17G24    30.33S
ANGLETON       PTCLDY    54  46  74 N12       30.31S
BAY CITY       MOSUNNY   58  48  69 NE10      30.31S
$$

TEXAS COASTAL BEND, RIO GRANDE PLAINS DEEP SOUTH TEXAS

CITY           SKY/WX    TMP DP  RH WIND       PRES   REMARKS
VICTORIA       CLEAR     54  44  69 N9        30.34R
BEEVILLE       FAIR      57  45  65 N10       30.32F
ROCKPORT       MOCLDY    59  49  69 NE15G21   30.30S
PORT ARANSAS   CLOUDY    60  60  99 N12       30.30R
PORT LAVACA    MOSUNNY   56  47  71 N12       30.32S
CORPUS CHRISTI CLOUDY    61  58  90 N10       30.30R
KINGSVILLE NAS MOCLDY    59  59 100 N8        30.30S
COTULLA        CLOUDY    61  38  42 NE15G22   30.33F
LAREDO         CLOUDY    61  58  90 NE13      30.32S
BROWNSVILLE    MOCLDY    61  60  97 NE5       30.26S FOG
PORT ISABEL    FOG       61  60  97 E3        30.26R VSB 1/2
HEBBRONVILLE   HVY RAIN  59  59  98 N3        30.31R VSB 1/2
MCALLEN        PTCLDY    63  61  93 N6        30.27R
WESLACO        MOCLDY    60  58  92 N3        30.27R FOG
FALFURRIAS     CLOUDY    57  56  95 N3        30.29S VSB 1/2
EDINBURG       FOG       61  58  92 N5        30.28S VSB 1/4
$$


USA.gov is the U.S. government's official web portal to all federal, state and local government web resources and services.